Weather History for Henderson, NV

Change the Weather History Date:

Saturday, February 23, 2013

  Actual Average (KLAS) Record (KLAS)
Temperature  
Mean Temperature 49 °F 55 °F  
Max Temperature 61 °F 65 °F 79 °F (2002)
Min Temperature 37 °F 45 °F 25 °F (1953)
Degree Days  
Heating Degree Days 16 10  
Month to date heating degree days 291  
Since 1 July heating degree days 1643  
Cooling Degree Days 0 0  
Month to date cooling degree days 0  
Year to date cooling degree days 0  
Moisture  
Dew Point 15 °F    
Average Humidity 27    
Maximum Humidity 45    
Minimum Humidity 12    
Precipitation  
Precipitation 0.00 in 0.03 in 0.32 in (1944)
Month to date precipitation 0.62  
Year to date precipitation 1.16  
Snow  
Snow 0.00 in 0.00 in T in (1960)
Month to date snowfall 0.1  
Since 1 July snowfall 0.3  
Snow Depth -    
Sea Level Pressure  
Sea Level Pressure 29.98 in    
Wind  
Wind Speed 12 mph (NNW)    
Max Wind Speed 28 mph    
Max Gust Speed 33 mph    
Visibility 10 miles    
Events      
T = Trace of Precipitation, MM = Missing Value Source: NWS Daily Summary

Daily Weather History Graph

Daily Weather History Graph

Search for Another Location

Airport:

Trip Planner

Search our weather history database for the weather conditions in past years. The results will help you decide how hot, cold, wet, or windy it might be!

Date:

Astronomy

Feb. 23, 2013 Rise Set
Actual Time 6:17 AM PST 5:30 PM PST
Civil Twilight 5:52 AM PST 5:56 PM PST
Nautical Twilight 5:22 AM PST 6:25 PM PST
Astronomical Twilight 4:52 AM PST 6:55 PM PST
Moon 3:46 PM PST 4:40 AM PST
Length of Visible Light 12h 04m
Length of Day
11h 12m
Waxing Gibbous, 96% of the Moon is Illuminated
Feb 23
Waxing Gibbous
Feb 25
Full
Mar 4
Last Quarter
Mar 11
New
Mar 19
First Quarter

Hourly Weather History & Observations

Time (PST) Temp. Windchill Dew Point Humidity Pressure Visibility Wind Dir Wind Speed Gust Speed Precip Events Conditions
12:56 AM 38.8 °F 34.6 °F 14.0 °F 36% 30.11 in 10.0 mi SSW 5.8 mph - N/A   Clear
1:56 AM 38.8 °F 34.6 °F 14.0 °F 36% 30.08 in 10.0 mi South 5.8 mph - N/A   Clear
2:56 AM 43.0 °F 36.0 °F 15.1 °F 32% 30.05 in 10.0 mi WSW 13.8 mph - N/A   Clear
3:56 AM 41.0 °F 35.8 °F 15.1 °F 35% 30.03 in 10.0 mi WSW 8.1 mph - N/A   Clear
4:56 AM 38.8 °F 35.4 °F 15.1 °F 38% 30.01 in 10.0 mi SSE 4.6 mph - N/A   Clear
5:56 AM 39.9 °F 37.8 °F 16.2 °F 38% 30.00 in 10.0 mi WNW 3.5 mph - N/A   Clear
6:56 AM 37.9 °F - 18.1 °F 45% 29.99 in 10.0 mi Calm Calm - N/A   Clear
7:56 AM 41.0 °F 38.0 °F 18.1 °F 40% 30.02 in 10.0 mi NW 4.6 mph - N/A   Clear
8:56 AM 46.9 °F - 18.1 °F 32% 29.94 in 10.0 mi South 11.5 mph 18.4 mph N/A   Clear
9:56 AM 56.8 °F - 19.0 °F 23% 29.89 in 10.0 mi SW 19.6 mph - N/A   Clear
10:56 AM 59.9 °F - 19.0 °F 21% 29.83 in 10.0 mi SSW 26.5 mph 33.4 mph N/A   Clear
11:40 AM 59.0 °F - 19.4 °F 22% 29.88 in 10.0 mi NNW 23.0 mph 31.1 mph N/A   Clear
11:56 AM 56.8 °F - 18.1 °F 22% 29.91 in 10.0 mi NNW 24.2 mph - N/A   Clear
12:56 PM 59.0 °F - 19.0 °F 21% 29.89 in 10.0 mi North 11.5 mph 19.6 mph N/A   Clear
1:56 PM 61.9 °F - 20.1 °F 20% 29.88 in 10.0 mi NE 18.4 mph 24.2 mph N/A   Clear
2:56 PM 59.0 °F - 21.0 °F 23% 29.89 in 10.0 mi NE 15.0 mph - N/A   Clear
3:56 PM 56.8 °F - 21.0 °F 25% 29.89 in 10.0 mi NE 12.7 mph 19.6 mph N/A   Mostly Cloudy
4:56 PM 54.0 °F - 17.1 °F 23% 29.91 in 10.0 mi ENE 12.7 mph 16.1 mph N/A   Mostly Cloudy
5:56 PM 52.9 °F - 13.1 °F 21% 29.93 in 10.0 mi NNE 11.5 mph 17.3 mph N/A   Overcast
6:56 PM 52.9 °F - 1.0 °F 12% 29.97 in 10.0 mi North 21.9 mph 31.1 mph N/A   Overcast
8:56 PM 46.9 °F - 6.1 °F 19% 30.05 in 10.0 mi North 27.6 mph 31.1 mph N/A   Partly Cloudy
9:56 PM 45.0 °F 36.9 °F 5.0 °F 19% 30.07 in 10.0 mi NNW 20.7 mph 28.8 mph N/A   Clear
10:56 PM 43.9 °F 34.7 °F 5.0 °F 20% 30.08 in 10.0 mi NNW 24.2 mph 33.4 mph N/A   Clear
11:56 PM 41.9 °F 33.4 °F 5.0 °F 22% 30.10 in 10.0 mi NNW 18.4 mph - N/A   Clear